Location: Unspecified
(17.6330°N, 0.0000°E)
Time: 17:13:52
(UTC+00:00)

Courier 1B Rocket - Pass Details

Date: 03 July 2019
Orbit: 920 x 1202 km, 28.2° (Epoch: 16 July)

Event Time Altitude Azimuth Distance (km) Brightness Sun altitude
Exits shadow 02:06:41 35° 348° (NNW) 1,756 6.4 -39.5°
Maximum altitude 02:07:31 36° 2° (N) 1,721 6.5 -39.4°
Drops below altitude 10° 02:14:11 10° 67° (ENE) 2,952 8.1 -38.4°
Sets 02:17:08 0° 76° (ENE) 3,864 8.8 -38.0°
